Tracking 22879 objects as of 21-Apr-2021
HD Live streaming from Space Station
objects crossing your sky now

COSMOS 2148

Track COSMOS 2148 now!
10-day predictions
COSMOS 2148 is classified as:


NORAD ID: 21304
Int'l Code: 1991-033F
Perigee: 1,388.6 km
Apogee: 1,422.9 km
Inclination: 82.6 °
Period: 113.8 minutes
Semi major axis: 7776 km
RCS: 1.1839 m2 (large)
Launch date: May 16, 1991
Source: Commonwealth of Independent States (former USSR) (CIS)
Launch site: PLESETSK MISSILE AND SPACE COMPLEX (PKMTR)
aabbcc
Your satellite tracking list
Your tracking list is empty




NASA's NSSDC Master Catalog

Two Line Element Set (TLE):
1 21304U 91033F   21110.87291743  .00000012  00000-0  59157-5 0  9997
2 21304  82.5770  40.7125 0022041 290.1164 135.2137 12.65919895382800
Source of the keplerian elements: AFSPC